Starlink 33556

operational
NORAD ID: 62109 Int'l Des: 2024-220 Owner: SPXS Country: US Constellation: starlink
LEOCIRCULAR

关于 Starlink 33556

正在加载描述...

实时位置

正在加载3D地球...

即将过境

高度历史

Altitude vs Time

uPlot chart will show altitude changes over time

两行轨道根数

1 62109U 24220X 25349.99579788 .00019782 00000-0 72608-3 0 9996
2 62109 43.0002 318.0016 0001282 247.7714 112.3002 15.27596576 60416
Epoch: Dec 15, 2025 • Age: 24 hours

当前状态

高度 482.0 km
速度 7.63 km/s
星下点 6.40°N, 36.82°E
发射日期 Nov 25, 2024
运行时间 1 years
类型 internet

技术详情

分类 Payload
质量 530.00 kg
干质量 500.00 kg
总质量 530.00 kg
长度 0.30 m
直径 4.10 m
跨度 29.00 m
形状 Box + pan
制造商 SPXS
平台类型 Starlink V2MO
阶段状态 In Orbit
所有者/国家 SPXS/US

大型星座

Loading constellations...